| time (UTC) | temp C | wind direction | speed KPH | gust KPH | rain 1hr cm | rain 24hr cm | rain mn cm | humidity % | barometer mb |
| 20260502210048 | 11 | 280 | 1.6 | 11.3 | 0.25 | 1.07 | 1.07 | 97 | 1010.3 |
| 20260502204547 | 11 | 279 | 1.6 | 14.5 | 0.28 | 1.04 | 1.04 | 97 | 1010.4 |
| 20260502203047 | 11 | 278 | 1.6 | 11.3 | 0.28 | 1.02 | 1.02 | 96 | 1010.3 |
| 20260502201547 | 11 | 277 | 3.2 | 11.3 | 0.15 | 0.89 | 0.89 | 96 | 1010.3 |
| 20260502200049 | 12 | 274 | 1.6 | 11.3 | 0.08 | 0.81 | 0.81 | 96 | 1010.2 |
| 20260502194548 | 12 | 274 | 0.0 | 9.7 | 0.00 | 0.74 | 0.74 | 95 | 1010.2 |
| 20260502193048 | 12 | 273 | 3.2 | 12.9 | 0.00 | 0.74 | 0.74 | 97 | 1010.4 |
| 20260502191548 | 12 | 0 | 0.0 | 0.0 | 0.00 | 0.74 | 0.74 | 94 | 1010.1 |
| 20260502190048 | 12 | 0 | 0.0 | 0.0 | 0.00 | 0.74 | 0.74 | 94 | 1010.3 |
| 20260502184548 | 12 | 0 | 0.0 | 0.0 | 0.00 | 0.74 | 0.74 | 93 | 1010.4 |
| 20260502183047 | 12 | 0 | 0.0 | 0.0 | 0.03 | 0.74 | 0.74 | 93 | 1010.5 |
| 20260502181549 | 12 | 0 | 0.0 | 0.0 | 0.08 | 0.74 | 0.74 | 93 | 1010.8 |
| 20260502163048 | 15 | 273 | 0.0 | 9.7 | 0.15 | 0.15 | 0.15 | 82 | 1011.8 |
| 20260502161549 | 16 | 273 | 0.0 | 4.8 | 0.08 | 0.08 | 0.08 | 79 | 1011.9 |
| 20260502151548 | 17 | 263 | 3.2 | 14.5 | 0.00 | 0.00 | 0.00 | 62 | 1011.8 |
| 20260502123049 | 19 | 228 | 1.6 | 8.0 | 0.00 | 0.00 | 0.00 | 57 | 1014.5 |
| 20260502121550 | 19 | 220 | 1.6 | 11.3 | 0.00 | 0.00 | 0.00 | 56 | 1014.5 |
| 20260502114549 | 18 | 214 | 1.6 | 9.7 | 0.00 | 0.00 | 0.00 | 60 | 1015.1 |
| 20260502113048 | 17 | 213 | 1.6 | 9.7 | 0.00 | 0.00 | 0.00 | 61 | 1015.2 |
| 20260502111550 | 17 | 213 | 3.2 | 11.3 | 0.00 | 0.00 | 0.00 | 62 | 1015.5 |
| 20260502110049 | 17 | 222 | 1.6 | 11.3 | 0.00 | 0.00 | 0.00 | 64 | 1016.0 |
| 20260502104550 | 17 | 220 | 0.0 | 9.7 | 0.00 | 0.00 | 0.00 | 64 | 1015.8 |
| 20260502103049 | 17 | 220 | 0.0 | 6.4 | 0.00 | 0.00 | 0.00 | 64 | 1015.9 |
| 20260502101549 | 16 | 242 | 3.2 | 11.3 | 0.00 | 0.00 | 0.00 | 65 | 1016.1 |
| 20260502070050 | 11 | 0 | 0.0 | 0.0 | 0.00 | 0.00 | 0.00 | 87 | 1017.1 |
| 20260502064551 | 10 | 0 | 0.0 | 0.0 | 0.00 | 0.00 | 0.00 | 91 | 1017.2 |
| 20260502063050 | 10 | 0 | 0.0 | 0.0 | 0.00 | 0.00 | 0.00 | 91 | 1017.4 |
| 20260502061550 | 9 | 0 | 0.0 | 0.0 | 0.00 | 0.00 | 0.00 | 92 | 1017.4 |
| 20260502060052 | 8 | 0 | 0.0 | 0.0 | 0.00 | 0.00 | 0.00 | 92 | 1017.3 |
| 20260502054552 | 8 | 0 | 0.0 | 0.0 | 0.00 | 0.00 | 0.00 | 91 | 1017.3 |
| 20260502053055 | 8 | 0 | 0.0 | 0.0 | 0.00 | 0.00 | 0.00 | 90 | 1017.2 |
| 20260502051551 | 8 | 0 | 0.0 | 0.0 | 0.00 | 0.00 | 0.00 | 91 | 1017.3 |
| 20260502050051 | 8 | 0 | 0.0 | 0.0 | 0.00 | 0.00 | 0.00 | 93 | 1017.3 |
| 20260502044551 | 8 | 0 | 0.0 | 0.0 | 0.00 | 0.00 | 0.00 | 91 | 1017.3 |
| 20260502043050 | 8 | 0 | 0.0 | 0.0 | 0.00 | 0.00 | 0.00 | 91 | 1017.5 |
| 20260502041552 | 8 | 0 | 0.0 | 0.0 | 0.00 | 0.00 | 0.00 | 91 | 1017.3 |
| 20260502040052 | 8 | 0 | 0.0 | 0.0 | 0.00 | 0.00 | 0.00 | 89 | 1017.5 |
| 20260502034552 | 8 | 0 | 0.0 | 0.0 | 0.00 | 0.00 | 0.00 | 89 | 1017.6 |
| 20260502033051 | 8 | 0 | 0.0 | 0.0 | 0.00 | 0.00 | 0.00 | 89 | 1017.7 |
| 20260502031553 | 9 | 0 | 0.0 | 0.0 | 0.00 | 0.00 | 0.00 | 88 | 1017.4 |
| 20260502030053 | 9 | 0 | 0.0 | 0.0 | 0.00 | 0.00 | 0.00 | 88 | 1017.5 |
| 20260502024551 | 9 | 0 | 0.0 | 0.0 | 0.00 | 0.00 | 0.00 | 88 | 1017.6 |
| 20260502023048 | 9 | 0 | 0.0 | 0.0 | 0.00 | 0.00 | 0.00 | 88 | 1017.6 |
| 20260502021549 | 10 | 0 | 0.0 | 0.0 | 0.00 | 0.00 | 0.00 | 88 | 1017.8 |
| 20260502020048 | 10 | 0 | 0.0 | 0.0 | 0.00 | 0.00 | 0.00 | 86 | 1017.8 |
| 20260502014549 | 10 | 0 | 0.0 | 0.0 | 0.00 | 0.00 | 0.00 | 86 | 1017.9 |
| 20260502013047 | 10 | 0 | 0.0 | 0.0 | 0.00 | 0.00 | 0.00 | 86 | 1018.0 |
| 20260502011547 | 10 | 0 | 0.0 | 0.0 | 0.00 | 0.00 | 0.00 | 85 | 1018.1 |
| 20260502010049 | 10 | 0 | 0.0 | 0.0 | 0.00 | 0.00 | 0.00 | 85 | 1018.2 |
| 20260502004550 | 10 | 0 | 0.0 | 0.0 | 0.00 | 0.00 | 0.00 | 85 | 1018.4 |
| 20260502003155 | 11 | 0 | 0.0 | 0.0 | 0.00 | 0.00 | 0.00 | 85 | 1018.5 |
| 20260502003049 | 11 | 0 | 0.0 | 0.0 | 0.00 | 0.00 | 0.00 | 85 | 1018.5 |
| 20260502001549 | 11 | 0 | 0.0 | 0.0 | 0.00 | 0.00 | 0.00 | 85 | 1018.6 |
| 20260502000300 | 11 | 0 | 0.0 | 0.0 | 0.00 | 0.00 | 0.00 | 84 | 1018.7 |
| 20260502000048 | 11 | 0 | 0.0 | 0.0 | 0.00 | 0.00 | 0.00 | 84 | 1018.7 |
| 20260501234549 | 11 | 0 | 0.0 | 0.0 | 0.00 | 0.00 | 0.00 | 83 | 1018.8 |
| 20260501233048 | 11 | 0 | 0.0 | 0.0 | 0.00 | 0.00 | 0.00 | 82 | 1018.9 |
| 20260501231548 | 11 | 260 | 0.0 | 3.2 | 0.00 | 0.00 | 0.00 | 81 | 1019.0 |
| 20260501230047 | 11 | 260 | 0.0 | 6.4 | 0.00 | 0.00 | 0.00 | 81 | 1018.8 |
| 20260501224548 | 12 | 260 | 0.0 | 8.0 | 0.00 | 0.00 | 0.00 | 80 | 1018.7 |
| 20260501223121 | 12 | 260 | 1.6 | 8.0 | 0.00 | 0.00 | 0.00 | 80 | 1018.6 |
| 20260501223047 | 12 | 260 | 1.6 | 8.0 | 0.00 | 0.00 | 0.00 | 80 | 1018.6 |
| 20260501221547 | 12 | 260 | 1.6 | 11.3 | 0.00 | 0.00 | 0.00 | 79 | 1018.6 |
| 20260501220047 | 12 | 260 | 1.6 | 12.9 | 0.00 | 0.00 | 0.00 | 79 | 1018.6 |
| 20260501214551 | 12 | 260 | 0.0 | 12.9 | 0.00 | 0.00 | 0.00 | 80 | 1018.6 |
| 20260501213049 | 12 | 260 | 0.0 | 4.8 | 0.00 | 0.00 | 0.00 | 80 | 1018.6 |
| 20260501211550 | 12 | 0 | 0.0 | 0.0 | 0.00 | 0.00 | 0.00 | 81 | 1018.7 |